Theta_e
334 334 334 336 338 340 340 339 338 338 339 338 337 336 335 335 335 335 337 337 336 335 332 330 327 324 318
331 329 330 332 335 336 335 333 332 333 334 334 332 335 335 334 334 335 336 336 335 334 331 328 326 325 318
329 326 327 329 330 330 329 327 326 328 329 329 329 332 334 334 333 332 334 334 332 330 329 327 324 323 321
330 327 329 327 327 326 325 325 326 325 326 327 324 327 329 329 330 330 329 325 322 321 325 325 323 321 320
328 326 326 326 324 323 323 323 323 324 323 322 325 323 321 319 319 316 316 316 316 316 316 316 319 319 318
328 327 325 325 324 322 321 321 322 324 320 319 320 320 319 317 314 314 312 313 313 314 313 313 316 317 316
329 327 325 324 325 323 321 321 323 325 321 319 319 319 316 315 313 313 311 311 310 311 311 311 310 311 313
329 329 326 323 323 325 322 321 322 325 321 320 317 318 315 315 313 312 311 309 309 310 309 309 308 308 308
329 329 327 325 324 323 323 321 322 322 321 319 317 316 315 316 314 312 310 308 307 308 307 307 307 306 306
328 329 328 326 325 324 322 322 323 323 322 319 317 317 316 317 316 311 309 306 305 305 304 304 304 304 304
328 329 329 327 326 325 323 322 322 323 322 320 319 318 317 315 317 314 310 307 303 302 302 300 300 300 301
328 328 328 328 327 326 323 322 323 323 323 320 319 319 320 316 314 313 310 304 303 302 302 299 297 297 296
326 326 325 324 326 325 323 322 322 322 322 321 320 319 321 318 316 313 309 305 300 298 297 295 295 296 295
326 327 327 326 325 324 323 320 321 321 322 322 321 320 321 319 316 312 309 304 302 299 296 294 293 294 295
325 326 324 324 321 319 319 320 319 320 321 322 322 321 319 319 316 313 310 308 301 298 297 297 291 291 292
323 323 321 320 320 321 321 321 320 319 320 321 321 320 318 318 318 316 313 310 306 300 298 299 297 295 292
Wind_Speed
13 13 13 10 13 10 13 13 12 10 10 15 15 15 14 13 13 11 11 15 19 18 19 15 12 10 7
9 9 10 11 11 11 10 11 9 10 10 10 11 13 14 13 13 12 12 15 18 19 17 14 11 10 5
7 6 10 12 11 9 8 10 8 4 5 6 9 11 12 12 13 12 13 13 14 16 15 11 8 3 4
8 5 7 7 5 5 5 5 4 5 4 5 8 12 9 10 12 13 13 12 8 5 5 7 3 4 3
6 3 3 3 4 4 6 5 5 4 4 3 3 4 4 6 4 5 5 4 5 4 4 2 4 4 2
4 4 4 4 4 4 4 6 5 4 3 4 3 4 4 3 4 3 3 5 5 5 5 4 3 4 2
10 6 4 4 6 6 5 5 5 8 5 4 4 4 4 3 3 3 4 4 5 5 4 4 3 4 4
10 11 7 5 5 7 6 6 6 7 6 5 4 4 4 4 3 4 4 4 4 4 4 4 3 2 3
14 12 9 8 6 5 7 9 8 6 7 7 4 4 4 4 5 3 3 2 4 2 4 3 3 3 3
14 12 10 8 8 7 7 8 10 9 9 7 5 5 5 4 4 4 4 3 2 3 3 2 2 2 2
14 11 12 13 9 8 7 8 10 11 11 8 7 6 6 4 6 6 2 4 3 2 3 2 1 2 3
11 10 9 9 10 8 8 9 13 10 11 9 6 7 9 6 4 5 6 2 3 4 2 1 2 3 3
9 10 9 10 9 8 7 10 13 12 12 10 6 7 9 9 9 8 4 4 2 3 3 2 3 5 5
9 9 7 10 8 9 9 9 10 12 13 11 11 10 10 8 8 9 7 4 2 4 4 2 3 4 5
10 6 2 2 2 4 5 7 8 11 13 14 13 10 10 11 9 9 10 11 6 5 5 4 1 5 2
11 9 12 10 9 9 8 9 10 13 13 14 13 12 11 8 11 10 9 10 8 7 3 7 4 2 3
Wind_Direction
165 160 153 161 132 125 144 130 126 125 128 137 123 125 125 131 120 117 127 130 134 130 128 124 108 99 103
161 178 160 139 123 127 121 118 108 114 118 124 117 120 124 128 121 111 118 133 129 130 124 119 113 102 98
157 157 132 131 134 124 116 111 100 101 108 110 109 110 116 119 117 111 108 111 115 122 117 113 104 100 111
166 154 137 132 128 126 123 122 114 113 113 114 115 105 103 110 110 114 111 93 84 104 114 112 109 105 92
155 138 128 129 126 126 130 124 112 109 111 107 107 106 103 82 77 79 91 86 108 106 100 98 125 115 111
133 152 137 134 140 137 142 133 126 125 117 122 117 129 124 112 108 98 109 118 110 115 123 127 149 131 136
163 157 157 154 157 156 150 151 142 158 154 145 151 146 136 131 138 130 127 128 123 123 124 140 127 128 144
179 173 170 158 153 160 163 164 156 167 166 163 166 143 149 158 157 149 144 153 141 141 138 136 142 120 104
183 178 178 172 161 166 173 169 164 164 170 167 160 153 169 166 160 131 105 80 110 103 132 136 142 155 164
187 180 183 184 176 179 175 175 173 169 171 170 167 176 167 161 160 155 148 125 129 149 147 172 165 179 199
194 181 186 188 185 183 176 183 179 177 176 178 182 181 166 173 176 165 152 133 162 159 158 161 205 216 217
189 182 183 192 198 189 177 190 179 183 182 180 187 184 178 176 181 171 157 126 152 165 135 188 273 263 253
195 184 184 195 193 196 191 183 186 183 180 183 187 193 189 184 186 175 145 152 122 132 99 338 293 250 244
194 198 200 190 200 199 183 189 188 182 175 185 191 195 192 187 187 175 153 135 128 174 147 107 280 295 246
199 195 219 183 103 154 201 196 188 181 184 191 197 191 193 187 190 187 177 170 170 194 209 161 160 244 328
182 189 197 197 199 201 194 203 191 187 190 194 196 194 192 201 190 191 185 186 156 185 217 233 218 171 219